| time (UTC) | temp F | wind direction | speed MPH | gust MPH | rain 1hr in | rain 24hr in | rain mn in | humidity % | barometer mb |
| 20260504100211 | 61 | 274 | 5.0 | 11.0 | 0.00 | 0.19 | 0.19 | 81 | 1014.9 |
| 20260504090134 | 56 | 148 | 4.0 | 7.0 | 0.00 | 0.19 | 0.19 | 97 | 1015.4 |
| 20260504081604 | 54 | 281 | 2.0 | 6.0 | 0.12 | 0.16 | 0.16 | 94 | 1015.5 |
| 20260504081100 | 53 | 307 | 4.0 | 6.0 | 0.78 | 0.15 | 0.15 | 92 | 1015.5 |
| 20260504080557 | 55 | 328 | 5.0 | 6.0 | 0.73 | 0.14 | 0.14 | 90 | 1015.5 |
| 20260504050404 | 60 | 166 | 7.0 | 9.0 | 0.00 | 0.00 | 0.00 | 66 | 1014.1 |
| 20260504045901 | 60 | 164 | 2.0 | 3.0 | 0.00 | 0.00 | 0.00 | 68 | 1014.0 |
| 20260504045356 | 60 | 165 | 1.0 | 2.0 | 0.00 | 0.00 | 0.00 | 70 | 1014.0 |
| 20260504044853 | 60 | 167 | 3.0 | 7.0 | 0.00 | 0.00 | 0.00 | 69 | 1014.1 |
| 20260504044350 | 59 | 149 | 1.0 | 1.0 | 0.00 | 0.00 | 0.00 | 70 | 1014.0 |
| 20260504043848 | 59 | 192 | 1.0 | 2.0 | 0.00 | 0.00 | 0.00 | 71 | 1013.8 |
| 20260504043344 | 59 | 146 | 0.0 | 1.0 | 0.00 | 0.00 | 0.00 | 72 | 1013.9 |
| 20260504042842 | 58 | 143 | 0.0 | 1.0 | 0.00 | 0.00 | 0.00 | 72 | 1014.0 |
| 20260504042338 | 58 | 164 | 2.0 | 2.0 | 0.00 | 0.00 | 0.00 | 71 | 1013.9 |
| 20260504041834 | 58 | 143 | 1.0 | 2.0 | 0.00 | 0.00 | 0.00 | 71 | 1014.1 |
| 20260504041331 | 58 | 165 | 1.0 | 1.0 | 0.00 | 0.00 | 0.00 | 72 | 1013.7 |
| 20260504040827 | 58 | 153 | 0.0 | 0.0 | 0.00 | 0.00 | 0.00 | 72 | 1013.9 |
| 20260504040325 | 57 | 286 | 3.0 | 5.0 | 0.00 | 0.00 | 0.00 | 72 | 1013.8 |
| 20260504035820 | 57 | 169 | 0.0 | 1.0 | 0.00 | 0.00 | 0.00 | 74 | 1014.0 |
| 20260504035318 | 57 | 153 | 2.0 | 3.0 | 0.00 | 0.00 | 0.00 | 74 | 1014.1 |
| 20260504034815 | 57 | 152 | 0.0 | 0.0 | 0.00 | 0.00 | 0.00 | 73 | 1013.8 |
| 20260504034313 | 57 | 155 | 0.0 | 1.0 | 0.00 | 0.00 | 0.00 | 74 | 1013.8 |
| 20260504033809 | 57 | 140 | 0.0 | 1.0 | 0.00 | 0.00 | 0.00 | 75 | 1013.8 |
| 20260504033308 | 57 | 134 | 0.0 | 0.0 | 0.00 | 0.00 | 0.00 | 75 | 1013.8 |
| 20260504032804 | 57 | 271 | 1.0 | 1.0 | 0.00 | 0.00 | 0.00 | 75 | 1013.8 |
| 20260504032301 | 57 | 214 | 0.0 | 0.0 | 0.00 | 0.00 | 0.00 | 76 | 1014.0 |
| 20260504031757 | 57 | 144 | 0.0 | 1.0 | 0.00 | 0.00 | 0.00 | 76 | 1013.8 |
| 20260504031255 | 57 | 133 | 0.0 | 0.0 | 0.00 | 0.00 | 0.00 | 75 | 1013.9 |
| 20260504030751 | 57 | 139 | 0.0 | 1.0 | 0.00 | 0.00 | 0.00 | 76 | 1013.7 |
| 20260504030248 | 57 | 306 | 0.0 | 1.0 | 0.00 | 0.00 | 0.00 | 76 | 1013.7 |
| 20260504025744 | 57 | 338 | 3.0 | 3.0 | 0.00 | 0.00 | 0.00 | 76 | 1013.6 |
| 20260504025242 | 57 | 295 | 2.0 | 3.0 | 0.00 | 0.00 | 0.00 | 76 | 1013.6 |
| 20260504024738 | 57 | 153 | 1.0 | 1.0 | 0.00 | 0.00 | 0.00 | 76 | 1013.7 |
| 20260504024235 | 57 | 291 | 2.0 | 2.0 | 0.00 | 0.00 | 0.00 | 76 | 1013.7 |
| 20260504023732 | 57 | 177 | 0.0 | 1.0 | 0.00 | 0.00 | 0.00 | 75 | 1013.5 |
| 20260504023228 | 57 | 319 | 2.0 | 2.0 | 0.00 | 0.00 | 0.00 | 74 | 1013.5 |
| 20260504022724 | 57 | 227 | 1.0 | 1.0 | 0.00 | 0.00 | 0.00 | 73 | 1013.6 |
| 20260504022220 | 57 | 154 | 2.0 | 2.0 | 0.00 | 0.00 | 0.00 | 72 | 1013.6 |
| 20260504021718 | 57 | 293 | 1.0 | 2.0 | 0.00 | 0.00 | 0.00 | 72 | 1013.5 |
| 20260504021215 | 57 | 151 | 0.0 | 0.0 | 0.00 | 0.00 | 0.00 | 72 | 1013.5 |
| 20260504020712 | 57 | 343 | 1.0 | 2.0 | 0.00 | 0.00 | 0.00 | 72 | 1013.5 |
| 20260504020208 | 57 | 175 | 3.0 | 3.0 | 0.00 | 0.00 | 0.00 | 71 | 1013.6 |
| 20260504015704 | 57 | 154 | 3.0 | 5.0 | 0.00 | 0.00 | 0.00 | 71 | 1013.5 |
| 20260504015201 | 57 | 192 | 5.0 | 7.0 | 0.00 | 0.00 | 0.00 | 70 | 1013.4 |
| 20260504014656 | 57 | 326 | 1.0 | 2.0 | 0.00 | 0.00 | 0.00 | 71 | 1013.4 |
| 20260504014154 | 57 | 217 | 1.0 | 1.0 | 0.00 | 0.00 | 0.00 | 72 | 1013.5 |
| 20260504013652 | 57 | 162 | 4.0 | 6.0 | 0.00 | 0.00 | 0.00 | 73 | 1013.4 |
| 20260504013148 | 57 | 315 | 2.0 | 3.0 | 0.00 | 0.00 | 0.00 | 71 | 1013.2 |
| 20260504012645 | 57 | 172 | 1.0 | 1.0 | 0.00 | 0.00 | 0.00 | 72 | 1013.2 |
| 20260504012143 | 57 | 1 | 4.0 | 7.0 | 0.00 | 0.00 | 0.00 | 73 | 1013.2 |
| 20260504011640 | 57 | 196 | 2.0 | 2.0 | 0.00 | 0.00 | 0.00 | 73 | 1013.4 |
| 20260504011136 | 57 | 260 | 1.0 | 2.0 | 0.00 | 0.00 | 0.00 | 74 | 1013.2 |
| 20260504010632 | 57 | 171 | 2.0 | 5.0 | 0.00 | 0.00 | 0.00 | 75 | 1013.4 |
| 20260504010128 | 56 | 190 | 2.0 | 5.0 | 0.00 | 0.00 | 0.00 | 76 | 1013.7 |
| 20260504005625 | 57 | 300 | 1.0 | 1.0 | 0.00 | 0.00 | 0.00 | 76 | 1013.3 |
| 20260504005122 | 57 | 174 | 1.0 | 2.0 | 0.00 | 0.00 | 0.00 | 75 | 1013.3 |
| 20260504004620 | 57 | 143 | 0.0 | 0.0 | 0.00 | 0.00 | 0.00 | 75 | 1013.6 |
| 20260504004117 | 57 | 321 | 3.0 | 5.0 | 0.00 | 0.00 | 0.00 | 74 | 1013.5 |
| 20260504003613 | 57 | 161 | 0.0 | 1.0 | 0.00 | 0.00 | 0.00 | 74 | 1013.5 |
| 20260504003110 | 57 | 244 | 3.0 | 6.0 | 0.00 | 0.00 | 0.00 | 74 | 1013.5 |
| 20260504002607 | 57 | 184 | 2.0 | 3.0 | 0.00 | 0.00 | 0.00 | 75 | 1013.5 |
| 20260504002105 | 57 | 272 | 3.0 | 3.0 | 0.00 | 0.00 | 0.00 | 75 | 1013.8 |
| 20260504001602 | 58 | 28 | 3.0 | 5.0 | 0.00 | 0.00 | 0.00 | 75 | 1013.9 |
| 20260504001057 | 58 | 297 | 4.0 | 7.0 | 0.00 | 0.00 | 0.00 | 75 | 1013.6 |
| 20260504000555 | 58 | 11 | 2.0 | 3.0 | 0.00 | 0.00 | 0.00 | 75 | 1013.7 |
| 20260504000053 | 58 | 147 | 1.0 | 2.0 | 0.00 | 0.00 | 0.00 | 75 | 1013.7 |
| 20260503235551 | 58 | 227 | 2.0 | 2.0 | 0.00 | 0.00 | 0.00 | 76 | 1013.7 |
| 20260503235047 | 58 | 162 | 0.0 | 0.0 | 0.00 | 0.00 | 0.00 | 75 | 1013.8 |
| 20260503234545 | 58 | 83 | 1.0 | 1.0 | 0.00 | 0.00 | 0.00 | 75 | 1013.5 |
| 20260503234043 | 58 | 225 | 2.0 | 2.0 | 0.00 | 0.00 | 0.00 | 74 | 1013.5 |
| 20260503233539 | 58 | 222 | 1.0 | 1.0 | 0.00 | 0.00 | 0.00 | 75 | 1013.6 |
| 20260503233035 | 59 | 152 | 1.0 | 1.0 | 0.00 | 0.00 | 0.00 | 74 | 1013.3 |
| 20260503232533 | 59 | 143 | 2.0 | 3.0 | 0.00 | 0.00 | 0.00 | 74 | 1013.5 |
| 20260503232030 | 59 | 299 | 2.0 | 2.0 | 0.00 | 0.00 | 0.00 | 72 | 1013.5 |
| 20260503231528 | 59 | 339 | 6.0 | 8.0 | 0.00 | 0.00 | 0.00 | 70 | 1013.6 |
| 20260503231024 | 59 | 322 | 2.0 | 3.0 | 0.00 | 0.00 | 0.00 | 70 | 1013.7 |
| 20260503230521 | 59 | 353 | 3.0 | 3.0 | 0.00 | 0.00 | 0.00 | 69 | 1013.7 |
| 20260503230018 | 58 | 298 | 3.0 | 7.0 | 0.00 | 0.00 | 0.00 | 69 | 1013.6 |
| 20260503225515 | 58 | 303 | 3.0 | 5.0 | 0.00 | 0.00 | 0.00 | 69 | 1013.8 |
| 20260503225010 | 58 | 232 | 2.0 | 2.0 | 0.00 | 0.00 | 0.00 | 69 | 1013.7 |
| 20260503224508 | 58 | 332 | 2.0 | 3.0 | 0.00 | 0.00 | 0.00 | 69 | 1013.5 |
| 20260503224005 | 58 | 49 | 3.0 | 6.0 | 0.00 | 0.00 | 0.00 | 68 | 1013.7 |
| 20260503223502 | 58 | 55 | 3.0 | 6.0 | 0.00 | 0.00 | 0.00 | 68 | 1013.6 |
| 20260503222952 | 58 | 336 | 3.0 | 5.0 | 0.00 | 0.00 | 0.00 | 66 | 1013.8 |
| 20260503222451 | 58 | 300 | 7.0 | 9.0 | 0.00 | 0.00 | 0.00 | 66 | 1013.9 |
| 20260503221949 | 58 | 199 | 2.0 | 3.0 | 0.00 | 0.00 | 0.00 | 67 | 1014.4 |
| 20260503221447 | 58 | 287 | 2.0 | 3.0 | 0.00 | 0.00 | 0.00 | 69 | 1014.0 |
| 20260503220944 | 58 | 313 | 1.0 | 3.0 | 0.00 | 0.00 | 0.00 | 70 | 1013.9 |
| 20260503220440 | 58 | 235 | 2.0 | 3.0 | 0.00 | 0.00 | 0.00 | 70 | 1014.2 |
| 20260503215937 | 58 | 310 | 2.0 | 3.0 | 0.00 | 0.00 | 0.00 | 72 | 1013.9 |
| 20260503215434 | 59 | 178 | 1.0 | 1.0 | 0.00 | 0.00 | 0.00 | 71 | 1014.0 |
| 20260503214932 | 59 | 186 | 1.0 | 1.0 | 0.00 | 0.00 | 0.00 | 71 | 1014.1 |
| 20260503214429 | 60 | 158 | 3.0 | 5.0 | 0.00 | 0.00 | 0.00 | 70 | 1014.1 |
| 20260503213926 | 60 | 263 | 4.0 | 5.0 | 0.00 | 0.00 | 0.00 | 69 | 1014.1 |
| 20260503213425 | 60 | 275 | 3.0 | 5.0 | 0.00 | 0.00 | 0.00 | 70 | 1014.2 |
| 20260503212920 | 60 | 316 | 0.0 | 2.0 | 0.00 | 0.00 | 0.00 | 71 | 1014.4 |
| 20260503212418 | 60 | 140 | 1.0 | 2.0 | 0.00 | 0.00 | 0.00 | 71 | 1014.4 |
| 20260503211915 | 60 | 179 | 1.0 | 1.0 | 0.00 | 0.00 | 0.00 | 71 | 1014.6 |
| 20260503211412 | 60 | 298 | 8.0 | 13.0 | 0.00 | 0.00 | 0.00 | 73 | 1014.4 |
| 20260503210906 | 60 | 315 | 3.0 | 5.0 | 0.00 | 0.00 | 0.00 | 75 | 1014.6 |
| 20260503210404 | 60 | 274 | 1.0 | 2.0 | 0.00 | 0.00 | 0.00 | 77 | 1014.5 |
| 20260503205859 | 59 | 20 | 2.0 | 3.0 | 0.00 | 0.00 | 0.00 | 80 | 1014.5 |
| 20260503205356 | 59 | 136 | 1.0 | 2.0 | 0.00 | 0.00 | 0.00 | 82 | 1014.5 |
| 20260503204853 | 59 | 36 | 2.0 | 3.0 | 0.00 | 0.00 | 0.00 | 83 | 1014.6 |
| 20260503204349 | 59 | 303 | 1.0 | 2.0 | 0.00 | 0.00 | 0.00 | 82 | 1014.4 |
| 20260503203847 | 60 | 169 | 2.0 | 3.0 | 0.00 | 0.00 | 0.00 | 81 | 1014.7 |
| 20260503203344 | 60 | 12 | 2.0 | 3.0 | 0.00 | 0.00 | 0.00 | 80 | 1014.4 |
| 20260503202841 | 59 | 313 | 4.0 | 7.0 | 0.00 | 0.00 | 0.00 | 81 | 1014.5 |
| 20260503202339 | 59 | 309 | 8.0 | 9.0 | 0.00 | 0.00 | 0.00 | 82 | 1014.3 |
| 20260503201837 | 60 | 294 | 5.0 | 8.0 | 0.00 | 0.00 | 0.00 | 82 | 1014.3 |
| 20260503201333 | 59 | 328 | 2.0 | 3.0 | 0.00 | 0.00 | 0.00 | 80 | 1014.4 |
| 20260503200831 | 60 | 103 | 1.0 | 1.0 | 0.00 | 0.00 | 0.00 | 79 | 1014.3 |
| 20260503200327 | 60 | 319 | 3.0 | 5.0 | 0.00 | 0.00 | 0.00 | 78 | 1014.2 |
| 20260503195825 | 60 | 314 | 3.0 | 5.0 | 0.00 | 0.01 | 0.01 | 78 | 1014.4 |
| 20260503195321 | 60 | 256 | 3.0 | 6.0 | 0.00 | 0.01 | 0.01 | 77 | 1014.5 |
| 20260503194819 | 60 | 279 | 7.0 | 9.0 | 0.00 | 0.01 | 0.01 | 77 | 1014.1 |
| 20260503194314 | 60 | 312 | 4.0 | 6.0 | 0.00 | 0.01 | 0.01 | 78 | 1014.1 |
| 20260503193810 | 60 | 331 | 3.0 | 5.0 | 0.00 | 0.01 | 0.01 | 78 | 1014.1 |
| 20260503193307 | 60 | 200 | 2.0 | 3.0 | 0.00 | 0.01 | 0.01 | 78 | 1014.1 |
| 20260503192803 | 60 | 166 | 2.0 | 5.0 | 0.00 | 0.01 | 0.01 | 78 | 1014.4 |
| 20260503192258 | 60 | 311 | 3.0 | 5.0 | 0.00 | 0.01 | 0.01 | 77 | 1014.0 |
| 20260503191755 | 60 | 295 | 1.0 | 2.0 | 0.00 | 0.01 | 0.01 | 77 | 1014.0 |
| 20260503191252 | 60 | 176 | 1.0 | 2.0 | 0.00 | 0.01 | 0.01 | 78 | 1014.0 |
| 20260503190748 | 60 | 282 | 5.0 | 7.0 | 0.00 | 0.01 | 0.01 | 78 | 1013.9 |
| 20260503190245 | 60 | 301 | 7.0 | 8.0 | 0.00 | 0.01 | 0.01 | 79 | 1014.0 |
| 20260503185742 | 60 | 290 | 5.0 | 7.0 | 0.00 | 0.01 | 0.01 | 80 | 1014.2 |
| 20260503185237 | 60 | 308 | 3.0 | 3.0 | 0.00 | 0.01 | 0.01 | 80 | 1013.8 |
| 20260503184732 | 60 | 299 | 5.0 | 8.0 | 0.00 | 0.01 | 0.01 | 80 | 1013.7 |
| 20260503184229 | 60 | 295 | 6.0 | 9.0 | 0.00 | 0.01 | 0.01 | 80 | 1014.1 |
| 20260503183725 | 60 | 188 | 1.0 | 3.0 | 0.00 | 0.01 | 0.01 | 81 | 1013.5 |
| 20260503183223 | 60 | 356 | 5.0 | 7.0 | 0.00 | 0.01 | 0.01 | 82 | 1013.8 |
| 20260503182721 | 60 | 290 | 3.0 | 6.0 | 0.00 | 0.01 | 0.01 | 85 | 1013.7 |
| 20260503182219 | 60 | 302 | 3.0 | 3.0 | 0.00 | 0.01 | 0.01 | 86 | 1013.7 |
| 20260503181715 | 60 | 296 | 7.0 | 9.0 | 0.05 | 0.01 | 0.01 | 87 | 1013.7 |
| 20260503181213 | 60 | 248 | 3.0 | 3.0 | 0.05 | 0.01 | 0.01 | 86 | 1013.5 |
| 20260503180709 | 61 | 14 | 3.0 | 5.0 | 0.00 | 0.00 | 0.00 | 84 | 1013.4 |
| 20260503180208 | 61 | 311 | 4.0 | 9.0 | 0.00 | 0.00 | 0.00 | 82 | 1013.2 |
| 20260503175704 | 61 | 310 | 2.0 | 3.0 | 0.00 | 0.00 | 0.00 | 81 | 1013.3 |
| 20260503175202 | 61 | 39 | 3.0 | 3.0 | 0.00 | 0.00 | 0.00 | 81 | 1013.5 |
| 20260503174657 | 61 | 26 | 3.0 | 3.0 | 0.00 | 0.00 | 0.00 | 83 | 1013.4 |
| 20260503174155 | 61 | 297 | 5.0 | 7.0 | 0.00 | 0.00 | 0.00 | 84 | 1013.2 |
| 20260503173650 | 61 | 301 | 4.0 | 6.0 | 0.00 | 0.00 | 0.00 | 85 | 1013.1 |
| 20260503173146 | 61 | 346 | 6.0 | 9.0 | 0.00 | 0.00 | 0.00 | 87 | 1013.1 |
| 20260503172644 | 61 | 300 | 6.0 | 7.0 | 0.00 | 0.00 | 0.00 | 88 | 1012.8 |
| 20260503172141 | 61 | 222 | 1.0 | 1.0 | 0.00 | 0.00 | 0.00 | 88 | 1012.7 |
| 20260503171637 | 61 | 289 | 1.0 | 2.0 | 0.00 | 0.00 | 0.00 | 88 | 1012.5 |
| 20260503171135 | 61 | 62 | 1.0 | 2.0 | 0.00 | 0.00 | 0.00 | 88 | 1012.4 |
| 20260503170632 | 61 | 325 | 3.0 | 5.0 | 0.00 | 0.00 | 0.00 | 88 | 1012.5 |
| 20260503170128 | 61 | 132 | 3.0 | 5.0 | 0.00 | 0.00 | 0.00 | 88 | 1012.5 |
| 20260503150520 | 62 | 313 | 5.0 | 6.0 | 0.00 | 0.00 | 0.00 | 93 | 1011.6 |
| 20260503131413 | 70 | 154 | 2.0 | 3.0 | 0.00 | 0.00 | 0.00 | 74 | 1010.4 |
| 20260503130910 | 71 | 307 | 7.0 | 10.0 | 0.00 | 0.00 | 0.00 | 74 | 1010.5 |
| 20260503130407 | 70 | 278 | 2.0 | 2.0 | 0.00 | 0.00 | 0.00 | 75 | 1010.5 |
| 20260503110811 | 70 | 289 | 5.0 | 7.0 | 0.00 | 0.00 | 0.00 | 78 | 1009.6 |
| 20260503110308 | 70 | 329 | 4.0 | 7.0 | 0.00 | 0.00 | 0.00 | 78 | 1009.7 |